SCP
0 0 0 0 0 0 0 0 0 0 0 0 0 0 0 0 0 0 0 0 0 0 0 0 0 0 0 0 0 0 0 0 0 0 0 0 0 0 0 0 0 0 0
0 0 0 0 0 0 0 0 0 0 0 0 0 0 0 0 0 0 0 0 0 0 0 0 0 0 0 0 0 0 0 0 0 0 0 0 0 0 0 0 0 0 0
0 0 0 0 0 0 0 0 0 0 0 0 0 0 0 0 0 0 0 0 0 0 0 0 0 0 0 0 0 0 0 0 0 0 0 0 0 0 0 0 0 0 0
0 0 0 0 0 0 0 0 0 0 0 0 0 0 0 0 0 0 0 0 0 0 0 0 0 0 0 0 0 0 0 0 0 0 0 0 0 0 0 0 0 0 0
0 0 0 0 0 0 0 0 0 0 0 0 0 0 0 0 0 0 0 0 0 0 0 0 0 0 0 0 0 0 0 0 0 0 0 0 0 0 0 0 0 0 0
0 0 0 0 0 0 0 0 0 0 0 0 0 0 0 0 0 0 0 0 0 0 0 0 0 0 0 0 0 0 0 0 0 0 0 0 0 0 0 0 0 0 0
0 0 0 0 0 0 0 0 0 0 0 0 0 0 0 0 0 0 0 0 0 0 0 0 0 0 0 0 0 0 0 0 0 0 0 0 0 0 0 0 0 0 0
0 0 0 0 0 0 0 0 0 0 0 0 0 0 0 0 0 0 0 0 0 0 0 0 0 0 0 0 0 0 0 0 0 0 0 0 0 0 0 0 0 0 0
0 0 0 0 0 0 0 0 0 0 0 0 0 0 0 0 0 0 0 0 0 0 0 0 0 0 0 0 0 0 0 0 0 0 0 0 0 0 0 0 0 0 0
0 0 0 0 0 0 0 0 0 0 0 0 0 0 0 0 0 0 0 0 0 0 0 0 0 0 0 0 0 0 0 0 0 0 0 0 0 0 0 0 0 0 0
0 0 0 0 0 0 0 0 0 0 0 0 0 0 0 0 0 0 0 0 0 0 0 0 0 0 0 0 0 0 0 0 0 0 0 0 0 0 0 0 0 0 0
0 0 0 0 0 0 0 0 0 0 0 0 0 0 0 0 0 0 0 0 0 0 0 0 0 0 0 0 0 0 0 0 0 0 0 0 0 0 0 0 0 0 0
0 0 0 0 0 0 0 0 0 0 0 0 0 0 0 0 0 0 0 0 0 0 0 0 0 0 0 0 0 0 0 0 0 0 0 0 0 0 0 0 0 0 0
0 0 0 0 0 0 0 0 0 0 0 0 0 0 0 0 0 0 0 0 0 0 0 0 0 0 0 0 0 0 0 0 0 0 0 0 0 0 0 0 0 0 0
0 0 0 0 0 0 0 0 0 0 0 0 0 0 0 0 0 0 0 0 0 0 0 0 0 0 0 0 0 0 0 0 0 0 0 0 0 0 0 0 0 0 0
0 0 0 0 0 0 0 0 0 0 0 0 0 0 0 0 0 0 0 0 0 0 0 0 0 0 0 0 0 0 0 0 0 0 0 0 0 0 0 0 0 0 0
0 0 0 0 0 0 0 0 0 0 0 0 0 0 0 0 0 0 0 0 0 0 0 0 0 0 0 0 0 0 0 0 0 0 0 0 0 0 0 0 0 0 0
0 0 0 0 0 0 0 0 0 0 0 0 0 0 0 0 0 0 0 0 0 0 0 0 0 0 0 0 0 0 0 0 0 0 0 0 0 0 0 0 0 0 0
0 0 0 0 0 0 0 0 0 0 0 0 0 0 0 0 0 0 0 0 0 0 0 0 0 0 0 0 0 0 0 0 0 0 0 0 0 0 0 0 0 0 0
0 0 0 0 0 0 0 0 0 0 0 0 0 0 0 0 0 0 0 0 0 0 0 0 0 0 0 0 0 0 0 0 0 0 0 0 0 0 0 0 0 0 0
0 0 0 0 0 0 0 0 0 0 0 0 0 0 0 0 0 0 0 0 0 0 0 0 0 0 0 0 0 0 0 0 0 0 0 0 0 0 0 0 0 0 0
0 0 0 0 0 0 0 0 0 0 0 0 0 0 0 0 0 0 0 0 0 0 0 0 0 0 0 0 0 0 0 0 0 0 0 0 0 0 0 0 0 0 0
0 0 0 0 0 0 0 0 0 0 0 0 0 0 0 0 0 0 0 0 0 0 0 0 0 0 0 0 0 0 0 0 0 0 0 0 0 0 0 0 0 0 0
0 0 0 0 0 0 0 0 0 0 0 0 0 0 0 0 0 0 0 0 0 0 0 0 0 0 0 0 0 0 0 0 0 0 0 0 0 0 0 0 0 0 0
0 0 0 0 0 0 0 0 0 0 0 0 0 0 0 0 0 0 0 0 0 0 0 0 0 0 0 0 0 0 0 0 0 0 0 0 0 0 0 0 0 0 0
0 0 0 0 0 0 0 0 0 0 0 0 0 0 0 0 0 0 0 0 0 0 0 0 0 0 0 0 0 0 0 0 0 0 0 0 0 0 0 0 0 0 0
Wind_Speed
0 0 0 1 1 1 2 2 2 2 2 2 2 2 2 2 3 3 3 4 5 4 4 4 4 3 3 2 2 2 3 3 5 5 3 3 4 5 5 4 4 4 5
0 0 0 0 0 1 1 2 2 2 2 2 3 3 3 3 3 3 3 3 4 5 4 4 5 4 4 3 3 4 3 3 4 7 5 3 4 4 5 5 5 4 4
1 0 0 0 0 1 1 1 1 2 2 2 2 3 3 3 3 3 3 3 3 4 4 5 5 5 5 4 4 4 3 3 3 5 5 3 3 3 4 5 4 4 4
1 0 1 1 1 1 1 1 1 1 2 2 2 3 3 3 3 3 3 3 3 4 4 4 5 6 6 5 5 5 4 4 3 4 5 4 3 3 3 4 5 4 4
0 0 1 1 1 1 1 1 1 1 1 2 2 2 2 3 3 4 4 4 4 4 4 4 5 6 7 6 5 4 4 4 3 4 4 4 4 3 3 3 5 5 4
0 1 1 1 1 1 2 2 1 1 2 1 2 2 2 3 4 5 4 3 4 4 5 4 4 5 6 8 8 8 7 6 5 5 5 5 5 4 4 3 4 4 4
0 1 1 1 1 2 2 2 2 2 2 2 2 2 3 4 5 5 5 3 4 4 4 4 4 4 5 5 6 7 7 8 9 7 7 7 6 5 4 5 5 5 6
0 1 1 1 2 2 2 2 2 2 2 2 2 2 3 4 5 5 5 3 3 4 4 4 5 5 5 5 5 5 5 6 7 6 7 7 6 5 5 5 5 5 4
1 1 2 1 1 2 2 3 3 2 2 2 2 2 3 4 5 5 5 3 3 4 4 4 5 5 7 7 5 5 6 5 6 8 8 8 8 8 5 2 2 3 4
2 2 2 1 1 2 3 3 3 2 3 2 2 2 3 4 5 6 5 3 3 3 3 4 5 7 8 7 5 5 6 5 4 4 5 6 5 5 6 4 4 4 3
1 1 1 2 2 2 2 2 2 2 2 2 3 3 3 4 5 6 6 3 3 3 3 3 4 7 8 9 7 5 7 5 4 4 4 3 3 3 3 3 3 4 4
1 1 2 2 2 2 2 2 2 2 2 2 3 3 3 3 4 6 7 6 5 4 4 3 4 8 9 9 6 6 7 4 2 2 3 3 3 3 3 3 3 3 3
1 1 2 2 2 2 2 2 2 2 2 2 2 3 3 3 4 7 7 8 7 4 4 7 7 8 7 5 6 6 4 2 2 3 3 3 3 3 2 2 2 2 2
1 2 2 2 2 2 2 2 2 2 2 2 3 3 4 4 3 3 4 4 5 5 3 4 6 7 5 4 3 3 3 2 3 3 3 2 2 1 1 1 2 2 2
2 2 2 2 2 2 2 2 3 3 3 4 3 3 4 4 5 7 5 4 3 3 2 1 2 2 2 2 2 2 2 2 2 2 2 2 2 2 2 1 1 1 2
2 2 2 2 2 2 3 3 5 5 6 7 7 6 5 7 9 9 8 8 7 5 2 1 2 2 2 2 3 3 2 2 2 2 2 2 2 2 2 2 1 2 2
3 3 2 2 2 2 2 3 4 5 6 7 8 8 8 9 9 8 8 7 5 3 1 1 2 2 3 2 3 3 3 2 2 2 2 2 2 2 2 2 2 2 2
3 3 3 2 2 2 3 3 3 3 4 4 6 9 9 9 9 8 7 4 3 2 1 2 2 3 2 2 3 3 3 2 2 2 2 2 2 2 2 2 2 2 2
3 3 2 2 2 3 3 3 3 3 4 4 4 5 7 8 8 7 6 1 2 2 2 2 3 3 2 3 3 3 3 2 2 2 2 2 2 2 2 2 2 3 2
3 4 3 2 2 2 3 3 3 3 4 4 4 4 3 3 3 4 3 2 2 3 3 3 3 3 3 3 3 2 2 2 2 2 2 2 2 2 3 3 3 3 3
3 3 3 2 3 3 3 3 3 3 4 4 4 5 6 3 3 3 3 3 3 3 3 3 3 3 3 3 3 3 3 3 2 2 2 2 2 2 2 2 2 2 2
2 2 2 3 3 3 3 3 3 4 4 5 4 5 7 4 3 3 4 4 4 4 3 3 3 3 3 3 3 3 3 3 3 3 2 2 2 2 2 2 2 2 2
3 3 3 3 3 4 4 3 4 4 4 4 4 4 4 3 4 4 4 4 4 4 3 3 4 3 3 3 3 4 4 4 4 3 3 3 2 2 2 2 3 3 2
3 3 3 3 3 3 4 4 4 4 4 4 4 4 4 4 4 5 4 4 4 4 3 3 4 4 5 4 3 3 4 4 4 4 5 4 3 3 3 3 3 3 3
3 3 3 4 4 4 4 4 4 4 4 4 4 4 4 4 4 4 4 4 4 4 4 4 4 4 5 5 5 4 5 6 5 4 4 4 4 4 3 3 3 3 3
3 3 4 3 4 4 4 4 4 4 4 4 4 4 4 4 4 4 4 4 4 4 4 4 4 5 5 5 5 6 6 6 6 6 5 4 4 4 4 3 3 3 3
Wind_Direction
288 294 298 293 241 197 199 219 217 214 207 209 207 207 213 223 220 217 225 218 215 221 221 216 227 224 223 229 231 235 242 238 257 277 278 288 291 295 303 298 290 285 285
300 317 254 276 276 206 220 226 216 218 217 213 208 209 219 228 227 223 230 233 226 224 225 224 231 226 225 228 229 235 241 244 250 272 283 286 282 285 291 296 300 294 284
13 5 347 335 308 260 253 245 231 226 233 228 211 214 224 234 235 236 235 237 242 238 233 231 233 225 231 231 232 237 242 254 252 260 276 280 284 292 302 304 302 293 289
34 1 311 306 297 281 279 267 246 236 231 238 232 226 226 232 236 239 244 242 242 250 245 242 239 229 230 230 233 237 241 250 256 258 270 281 286 292 292 300 307 306 300
80 329 298 312 322 316 302 290 273 261 246 238 233 239 240 233 231 230 231 239 241 252 252 246 249 249 246 241 238 234 234 242 251 260 268 280 282 287 283 290 292 307 298
181 283 309 324 337 326 314 307 302 286 267 248 235 236 245 251 260 263 256 245 246 249 257 256 254 251 257 259 258 252 243 239 246 250 263 264 275 278 284 280 290 299 293
211 304 318 326 332 324 320 316 294 285 275 256 247 240 255 263 271 272 272 255 252 251 252 260 262 256 254 251 258 261 257 255 248 244 251 257 263 263 267 270 265 272 276
201 280 308 314 314 323 321 306 298 293 284 267 259 251 259 273 279 280 283 260 255 255 253 255 262 264 257 255 253 253 255 254 256 250 246 252 255 254 244 251 260 277 288
260 277 290 292 302 317 309 302 303 304 294 276 265 261 265 279 284 284 285 261 259 263 263 261 262 262 266 268 256 254 262 266 271 267 267 268 270 271 271 256 252 261 282
271 278 292 297 287 289 294 303 308 300 289 283 282 276 268 274 282 284 284 262 263 267 268 265 265 270 273 273 254 247 255 263 268 278 279 280 273 268 267 242 232 241 268
295 311 312 305 291 286 294 306 311 305 304 303 293 293 283 276 281 284 284 271 259 267 269 269 266 277 280 280 275 256 262 273 261 257 262 265 264 256 251 251 246 238 244
320 307 308 309 302 305 301 307 308 302 300 304 308 308 301 292 285 284 284 280 269 256 262 267 269 278 283 283 279 279 288 284 261 259 260 259 259 261 262 262 261 258 253
318 294 303 309 308 304 294 297 308 303 291 295 298 298 302 301 293 293 290 285 281 269 263 271 279 283 287 286 285 288 285 261 251 250 255 257 259 260 267 281 288 283 295
275 285 290 295 303 304 292 283 283 281 279 280 281 283 291 296 292 292 289 289 288 283 283 287 294 297 299 299 293 289 275 258 250 251 257 264 271 269 266 277 281 295 302
264 280 291 287 284 289 284 267 263 255 254 261 263 265 272 280 283 287 285 272 263 256 266 280 283 293 297 296 288 280 274 267 257 261 256 261 265 268 281 296 280 278 259
264 276 281 285 286 285 291 300 290 283 287 286 283 281 279 284 295 295 295 297 292 280 251 238 252 259 264 269 273 274 263 260 259 258 252 246 248 256 272 280 273 259 267
248 265 272 272 276 281 286 290 302 308 300 298 302 298 295 300 303 305 306 308 317 326 268 260 258 259 262 265 264 262 261 261 254 244 244 247 249 247 246 253 255 263 268
252 260 261 263 268 273 274 275 279 292 304 304 305 307 310 309 312 316 320 325 324 327 283 264 265 262 260 260 259 261 262 260 248 242 241 237 233 239 245 245 241 244 258
249 256 259 263 267 270 274 275 276 277 281 291 303 311 314 314 319 323 328 310 278 282 276 269 263 262 264 262 257 255 252 250 248 238 231 231 229 227 238 246 248 247 244
250 255 260 261 266 268 270 271 273 274 276 279 282 288 300 312 308 308 302 279 268 266 265 263 262 259 259 257 256 252 252 251 245 236 233 230 225 223 233 241 241 245 248
247 254 256 260 258 260 263 263 266 267 267 270 273 278 284 273 272 277 278 271 263 261 262 262 260 257 253 251 247 244 243 246 243 238 232 228 223 227 231 233 238 242 252
236 242 243 247 256 259 262 263 262 262 263 267 277 287 290 285 274 272 271 271 268 264 259 257 258 253 245 240 239 240 239 239 238 237 237 228 220 217 224 231 235 238 237
230 239 248 253 254 260 262 260 259 261 262 263 269 275 274 267 266 266 267 271 271 271 266 257 258 260 252 245 238 233 234 235 230 224 226 229 221 217 215 222 228 231 235
229 235 244 252 251 250 255 261 261 262 261 262 263 263 264 263 264 267 269 272 273 272 267 262 258 257 257 256 248 242 241 240 229 223 218 219 221 221 217 217 223 225 233
230 236 241 245 249 253 257 262 264 264 264 264 263 264 264 263 265 267 269 271 272 273 273 267 264 262 260 257 256 251 252 255 248 224 212 209 213 217 215 217 218 223 229
231 237 242 246 248 251 254 258 262 263 264 266 266 265 265 265 267 269 270 271 274 276 275 270 266 264 266 262 258 259 255 249 237 224 207 201 205 215 213 214 213 219 221